[[{"header":{"parameterUnit":"m.s-1","parameterCategory":1,"la1":30.2991,"la2":30.254,"lo1":-89.0895,"lo2":-89.0444,"dy":0.0017,"dx":0.0017,"nx":28,"ny":28,"refTime":"2026-02-25T03:00:00:Z","depth":0,"parameterNumber":2,"parameterNumberName":"U-component_of_WINDS"},"data":[0,0,0,0,0,0,0,0,0,0,0,0,0,0,0,0,0,0,0,0,0,0,0,0,0,0,0,0,0,0,0,0,0,0,0,0,0,0,0,0,0,0,0,0,0,0,0,0,0,0,0,0,0,0,0,0,0,0,0.1072,0.1072,0,0.1154,0.1155,0.1156,0.1201,0.1201,0.1202,0.1202,0.1288,0.129,0.1292,0,0,0,0,0,0,0,0,0,0,0,0,0,0.0955,0.0957,0.1071,0.1073,0.1074,0.1154,0.1155,0.1156,0.1201,0.1201,0.1202,0.1202,0.1287,0.1289,0.1292,0,0,0,0,0,0,0,0,0,0,0,0,0,0.1018,0.0958,0.1071,0.1106,0.111,0.1154,0.1155,0.1156,0.1201,0.1201,0.1202,0.1202,0.1286,0.1289,0.1292,0.1309,0,0,0.1302,0.1304,0,0,0,0,0,0,0,0,0.1015,0.1023,0.11,0.1103,0.1108,0.1168,0.1146,0.1208,0.1201,0.1167,0.1202,0.1202,0.1248,0.1254,0.1269,0.1313,0.1317,0.1303,0.1305,0.1306,0.1307,0,0,0,0,0,0,0,0.101,0.1019,0.1104,0.1101,0.1106,0.1118,0.1127,0.1158,0.1205,0.117,0.1173,0.1182,0.125,0.1266,0.1272,0.1318,0.1303,0.1306,0.1308,0.1309,0.1382,0.1382,0,0,0,0,0,0,0.1,0.1015,0.1102,0.1107,0.1061,0.112,0.113,0.1148,0.1205,0.1214,0.1182,0.1184,0.126,0.1268,0.1275,0.1299,0.1306,0.1309,0.1311,0.1382,0.1382,0.1382,0,0,0,0,0,0,0.0998,0.1007,0.1098,0.1062,0.1075,0.1122,0.1142,0.115,0.1166,0.1214,0.1223,0.1189,0.1261,0.127,0.1301,0.1303,0.1311,0.1314,0.1382,0.1382,0.1382,0.1347,0,0,0,0,0,0,0.0994,0.1006,0.1012,0.1062,0.1076,0.1122,0.1142,0.1151,0.1171,0.1175,0.1224,0.1232,0.1262,0.1295,0.1304,0.1307,0.1316,0.1382,0.1382,0.1382,0.1348,0.1346,0.1344,0,0,0,0,0,0.099,0.0999,0.1012,0.1023,0.1085,0.1122,0.113,0.1164,0.1171,0.1178,0.121,0.123,0.1301,0.1298,0.1308,0.1313,0.1382,0.1382,0.1382,0.1349,0.1347,0.1344,0,0,0,0,0,0,0.0949,0.1006,0.1022,0.1047,0.1079,0.1129,0.1139,0.1159,0.119,0.1192,0.1233,0.1244,0.1271,0.1295,0.129,0.1333,0.1344,0.1346,0.1316,0.1314,0.1311,0.1305,0.1319,0,0,0,0,0,0.0943,0.0968,0.1017,0.1035,0.105,0.1092,0.1109,0.1132,0.1167,0.1181,0.1215,0.1248,0.1278,0.1297,0.1327,0.1352,0.1364,0.136,0.1358,0.1356,0.1357,0.1374,0.1373,0.1381,0.1381,0.1381,0,0,0.0931,0.0965,0.0979,0.1028,0.1055,0.1081,0.1103,0.1129,0.1148,0.1185,0.1216,0.1242,0.1282,0.131,0.1324,0.1331,0.1358,0.1356,0.1354,0.1357,0.1374,0.1373,0.1372,0.1381,0.1381,0.1381,0,0,0.0923,0.095,0.0969,0.0997,0.1038,0.1066,0.107,0.1118,0.1136,0.1168,0.1196,0.1221,0.1271,0.1299,0.132,0.1323,0.1344,0.1331,0.132,0.1336,0.1335,0.1335,0.1337,0.1337,0.1333,0.1332,0.1332,0,0.0903,0.0942,0.0977,0.1001,0.1022,0.1057,0.1077,0.1102,0.1151,0.1165,0.1172,0.1237,0.1266,0.1302,0.1303,0.1318,0.1326,0.1326,0.1332,0.1332,0.1333,0.1335,0.1336,0.1331,0.1331,0.1331,0.1331,0,0.0916,0.0942,0.0953,0.1,0.1022,0.1044,0.1083,0.1102,0.1123,0.1151,0.1183,0.122,0.1259,0.1269,0.129,0.1308,0.1311,0.1324,0.1337,0.1329,0.1333,0.1334,0.1328,0.1329,0.133,0.133,0,0,0.0884,0.095,0.0954,0.0976,0.1024,0.1046,0.107,0.1108,0.1124,0.1157,0.1179,0.1221,0.1234,0.1258,0.1282,0.1296,0.1298,0.1308,0.131,0.1306,0.1321,0.1312,0.1312,0.1311,0.1312,0.1312,0.1318,0,0.0883,0.0928,0.0961,0.0993,0.1019,0.1053,0.1074,0.1106,0.1133,0.1159,0.1189,0.1218,0.1233,0.1247,0.1262,0.1294,0.1301,0.1294,0.1334,0.1334,0.1323,0.1314,0.1303,0.1308,0.132,0.132,0.132,0,0.0889,0.0921,0.0956,0.1003,0.1015,0.1033,0.1071,0.1095,0.1133,0.1152,0.1178,0.1204,0.1232,0.1241,0.1281,0.1275,0.1293,0.1312,0.1313,0.1318,0.1327,0.132,0.131,0.1311,0.1322,0.1322,0.1322,0,0.0864,0.0915,0.0943,0.0961,0.1016,0.1029,0.1052,0.1091,0.1111,0.1145,0.1159,0.1195,0.1215,0.1243,0.1278,0.1281,0.1315,0.1326,0.1332,0.1331,0.1338,0.1337,0.1331,0.1348,0.1348,0.1348,0.1347,0,0.086,0.0881,0.0933,0.095,0.0975,0.1012,0.1036,0.1062,0.1096,0.112,0.1151,0.1172,0.1217,0.1244,0.1271,0.1301,0.131,0.1326,0.1333,0.1324,0.1322,0.1337,0.1338,0.1348,0.1348,0.1348,0.1348,0,0.0837,0.0873,0.0906,0.0955,0.0968,0.0984,0.1027,0.1045,0.1073,0.1103,0.1112,0.1157,0.1191,0.1228,0.1274,0.1293,0.1322,0.1331,0.1309,0.1313,0.1317,0.1316,0.1321,0.1324,0.1337,0.1337,0.1337,0,0.0833,0.0849,0.0901,0.0919,0.0942,0.097,0.0992,0.103,0.1051,0.1096,0.111,0.1146,0.1177,0.123,0.1267,0.1303,0.1314,0.1314,0.132,0.131,0.1316,0.1315,0.1317,0.1312,0.1311,0.1311,0.1311,0,0.0822,0.084,0.0869,0.0906,0.0931,0.0961,0.0993,0.1006,0.105,0.1073,0.1108,0.1132,0.118,0.1216,0.1256,0.1282,0.1304,0.1308,0.1312,0.1303,0.1289,0.1298,0.1304,0.1308,0.1309,0.1309,0.1309,0.1309,0.081,0.0826,0.0866,0.0898,0.0926,0.0955,0.0975,0.1006,0.1036,0.1077,0.1098,0.1133,0.1172,0.1229,0.1253,0.1282,0.1289,0.1293,0.1295,0.1296,0.1294,0.1284,0.1289,0.1289,0.129,0.129,0.129,0,0.0802,0.0829,0.0858,0.0902,0.0928,0.0946,0.0982,0.1003,0.1033,0.1067,0.1097,0.1138,0.1173,0.1213,0.1251,0.1266,0.1278,0.1275,0.1275,0.128,0.1285,0.1278,0.1265,0.1265,0.1265,0.1265,0.1265,0.1265,0.0801,0.0831,0.0853,0.0897,0.0924,0.0958,0.0978,0.1005,0.1032,0.1076,0.1106,0.1131,0.1168,0.1209,0.1242,0.1253,0.1266,0.1261,0.1275,0.1278,0.128,0.1282,0.1276,0.1263,0.1263,0.1269,0.1269,0.1269]},{"header":{"parameterUnit":"m.s-1","parameterCategory":1,"la1":30.2991,"la2":30.254,"lo1":-89.0895,"lo2":-89.0444,"dy":0.0017,"dx":0.0017,"nx":28,"ny":28,"refTime":"2026-02-25T03:00:00:Z","depth":0,"parameterNumber":3,"parameterNumberName":"V-component_of_WINDS"},"data":[0,0,0,0,0,0,0,0,0,0,0,0,0,0,0,0,0,0,0,0,0,0,0,0,0,0,0,0,0,0,0,0,0,0,0,0,0,0,0,0,0,0,0,0,0,0,0,0,0,0,0,0,0,0,0,0,0,0,4.7582,4.7583,0,4.7664,4.7665,4.7666,4.7674,4.7673,4.7672,4.7671,4.7749,4.7751,4.7754,0,0,0,0,0,0,0,0,0,0,0,0,0,4.7427,4.743,4.7582,4.7583,4.7584,4.7664,4.7665,4.7666,4.7674,4.7673,4.7672,4.7671,4.7748,4.7751,4.7755,0,0,0,0,0,0,0,0,0,0,0,0,0,4.75,4.7431,4.7582,4.7598,4.76,4.7664,4.7665,4.7667,4.7674,4.7673,4.7671,4.767,4.7747,4.7751,4.7755,4.7807,0,0,4.7768,4.777,0,0,0,0,0,0,0,0,4.7496,4.7506,4.7594,4.7597,4.7599,4.7658,4.7639,4.7713,4.7674,4.7646,4.7671,4.767,4.7719,4.7725,4.7743,4.781,4.7814,4.7768,4.7771,4.7773,4.7774,0,0,0,0,0,0,0,4.7491,4.7502,4.7614,4.7596,4.7599,4.7599,4.7608,4.7653,4.7688,4.7648,4.7649,4.7659,4.772,4.7739,4.7745,4.7815,4.7768,4.7772,4.7775,4.7776,4.7931,4.7933,0,0,0,0,0,0,4.7484,4.7498,4.7612,4.7617,4.7544,4.7603,4.7613,4.764,4.7688,4.7694,4.766,4.7659,4.7733,4.774,4.7748,4.7814,4.7773,4.7777,4.7779,4.793,4.7931,4.7933,0,0,0,0,0,0,4.748,4.7494,4.7608,4.7558,4.7573,4.7607,4.7637,4.7642,4.7662,4.7697,4.7702,4.7673,4.7732,4.7742,4.7793,4.7817,4.7779,4.7783,4.7928,4.793,4.7932,4.7946,0,0,0,0,0,0,4.7476,4.7493,4.7514,4.7558,4.7575,4.7654,4.7639,4.7645,4.767,4.7669,4.7711,4.7717,4.7732,4.7787,4.7797,4.7822,4.7786,4.7926,4.7929,4.7932,4.7943,4.7948,4.7952,0,0,0,0,0,4.747,4.7512,4.7515,4.7528,4.7603,4.7655,4.7665,4.7683,4.7672,4.7693,4.7716,4.7715,4.7812,4.7792,4.7804,4.783,4.7924,4.7928,4.7931,4.7941,4.7947,4.7952,0,0,0,0,0,0,4.7466,4.7518,4.7522,4.7579,4.7613,4.7656,4.7683,4.7688,4.7724,4.7722,4.7741,4.775,4.7802,4.782,4.7797,4.7884,4.7867,4.7873,4.787,4.7876,4.7881,4.7876,4.779,0,0,0,0,0,4.7473,4.7513,4.7555,4.7602,4.7619,4.7648,4.7672,4.7683,4.7718,4.7732,4.7758,4.7791,4.7829,4.7853,4.789,4.7946,4.7956,4.797,4.7974,4.7978,4.7983,4.8017,4.8024,4.7945,4.7944,4.7944,0,0,4.7485,4.7518,4.7542,4.7602,4.763,4.767,4.766,4.7702,4.7733,4.7737,4.7789,4.781,4.7847,4.7902,4.7927,4.7919,4.8007,4.7982,4.7985,4.7988,4.8021,4.8029,4.8035,4.7947,4.7946,4.7946,0,0,4.7529,4.7558,4.7602,4.763,4.7674,4.7693,4.7704,4.7747,4.7762,4.7814,4.782,4.7854,4.7919,4.7946,4.7969,4.8026,4.8027,4.8036,4.8061,4.8093,4.81,4.8105,4.8128,4.8136,4.8041,4.8041,4.8042,0,4.7539,4.7602,4.7623,4.7667,4.7694,4.7703,4.7747,4.7773,4.7824,4.7842,4.7833,4.7917,4.7942,4.8004,4.8019,4.8035,4.8048,4.8033,4.8097,4.8103,4.8109,4.8131,4.8139,4.8043,4.8042,4.8042,4.8042,0,4.7613,4.7657,4.7687,4.7741,4.777,4.7813,4.784,4.7867,4.7876,4.7897,4.7951,4.7982,4.8026,4.8041,4.8049,4.8106,4.81,4.8094,4.8077,4.8117,4.8138,4.8146,4.8044,4.8044,4.8043,4.8043,0,0,4.7657,4.7724,4.7735,4.7761,4.781,4.7843,4.7887,4.7933,4.7957,4.7992,4.803,4.8086,4.8082,4.8107,4.8117,4.8146,4.8192,4.8136,4.8137,4.8148,4.8259,4.8265,4.8275,4.8193,4.8194,4.8196,4.8257,0,4.7709,4.7791,4.7812,4.7881,4.7923,4.7933,4.7971,4.8005,4.8025,4.8062,4.8083,4.8124,4.8113,4.8129,4.8157,4.8181,4.8215,4.8176,4.8229,4.823,4.8222,4.8285,4.8291,4.8347,4.8265,4.8266,4.8267,0,4.7781,4.7822,4.7897,4.7943,4.7961,4.7996,4.8041,4.8076,4.8115,4.8127,4.8157,4.8166,4.8211,4.8191,4.8255,4.8228,4.8251,4.8265,4.8268,4.8275,4.8253,4.8296,4.8365,4.8375,4.828,4.8279,4.8278,0,4.7809,4.7882,4.7938,4.7959,4.8013,4.8038,4.8061,4.8099,4.8126,4.8164,4.8183,4.8225,4.8248,4.828,4.83,4.8283,4.8363,4.8344,4.8375,4.8375,4.8393,4.8392,4.8469,4.8403,4.8403,4.8403,4.8403,0,4.7867,4.7912,4.7952,4.7986,4.8037,4.806,4.811,4.8133,4.8167,4.8205,4.8213,4.8248,4.8272,4.8309,4.8324,4.8376,4.8386,4.8398,4.8402,4.8398,4.8397,4.8415,4.8412,4.8405,4.8405,4.8404,4.8404,0,4.7908,4.7936,4.7997,4.8045,4.8058,4.8094,4.8134,4.8167,4.8188,4.8236,4.8249,4.8281,4.8326,4.8349,4.8404,4.8415,4.8474,4.8474,4.8462,4.8464,4.8496,4.8493,4.8589,4.8603,4.8525,4.8526,4.8527,0,4.7944,4.798,4.8033,4.8061,4.8086,4.8129,4.8159,4.8182,4.8211,4.8259,4.8287,4.8333,4.8372,4.8444,4.8471,4.8514,4.8517,4.8547,4.8523,4.852,4.852,4.8519,4.8524,4.8552,4.8553,4.8553,4.8554,0,4.8006,4.8019,4.8062,4.8111,4.8146,4.8184,4.8222,4.8243,4.8272,4.8305,4.8353,4.8384,4.8442,4.8489,4.8534,4.8556,4.8561,4.8561,4.8571,4.857,4.8563,4.857,4.8477,4.8559,4.8559,4.8558,4.8558,4.8558,4.8048,4.8082,4.8126,4.8173,4.8205,4.8241,4.8275,4.8302,4.8343,4.8395,4.8405,4.8457,4.8495,4.8557,4.8581,4.8621,4.8614,4.8628,4.8632,4.8636,4.8639,4.8555,4.8629,4.8629,4.8628,4.8628,4.8628,0,4.8113,4.8142,4.8186,4.8241,4.8279,4.8281,4.8323,4.8355,4.8401,4.8438,4.8477,4.8533,4.8579,4.861,4.8656,4.8682,4.8685,4.8694,4.8693,4.8699,4.8641,4.8629,4.8691,4.8691,4.8691,4.8691,4.8691,4.8691,4.8152,4.821,4.8228,4.8303,4.833,4.8384,4.8408,4.8441,4.8471,4.8535,4.8574,4.8595,4.863,4.8679,4.8721,4.8729,4.8746,4.8755,4.8763,4.8709,4.8702,4.8696,4.8685,4.8758,4.8758,4.8818,4.8819,4.8819]}]]